Weather Roundup
Issued by NWS Chicago, IL

Home | Current Version | Previous Version | Graphics & Text | Print | Product List | Glossary On
Versions: 1 2 3 4 5 6 7 8 9 10 11 12 13 14 15 16 17 18 19 20 21 22 23 24 25 26 27 28 29 30 31 32 33 34 35 36 37 38 39 40 41 42 43 44 45 46 47 48 49 50
682
NZUS59 KLOT 070708
HRRLOT

CHICAGO AREA WEATHER ROUNDUP
NATIONAL WEATHER SERVICE CHICAGO/ROMEOVILLE IL
100 AM CST SUN FEB 07 2016

NOTE: "FAIR" INDICATES FEW OR NO CLOUDS BELOW 12,000 FEET WITH NO
SIGNIFICANT WEATHER AND/OR OBSTRUCTIONS TO VISIBILITY.

* THESE STATIONS ARE NOT UNDER NWS QUALITY CONTROL. THEY ALSO MAY NOT
  REPORT WEATHER SUCH AS PRECIPITATION OR FOG.

ILZ005-006-012>014-019>023-070800-
NORTHEAST ILLINOIS

CITY           SKY/WX    TMP DP  RH WIND       PRES   REMARKS
OHARE          CLOUDY    34  29  82 SW6       30.02F WCI  29
MIDWAY         MOCLDY    35  28  75 S7        30.04F WCI  29
AURORA         CLOUDY    35  29  78 S8        30.03F WCI  29
LANSING*       CLOUDY    33  30  88 SW7       30.05F WCI  27
JOLIET*        CLOUDY    33  31  92 S3        30.05F
WAUKEGAN       CLOUDY    34  29  82 SW8       30.00F WCI  27
DUPAGE AIRPORT MOCLDY    33  27  78 S6        30.01F WCI  28
WHEELING       CLOUDY    34  29  82 S6        30.03F WCI  29
KANKAKEE*      PTCLDY    32  29  90 S8        30.08S WCI  25
MORRIS*        CLOUDY    32  29  89 S5        30.02F WCI  28
LEWIS AIRPORT* CLOUDY    33  30  88 SW8       30.04F WCI  26
$$

WIZ051-052-058>065-066-070>072-070800-
SOUTHEAST WISCONSIN

CITY           SKY/WX    TMP DP  RH WIND       PRES   REMARKS
MILWAUKEE      CLOUDY    33  28  81 SW7       29.98F WCI  27
KENOSHA*       CLOUDY    33  28  81 SW7       29.99F WCI  27
RACINE*        CLOUDY    34  27  75 S10       30.00F WCI  26
BURLINGTON     CLOUDY    31  28  86 S7        29.98F WCI  24
WAUKESHA       CLOUDY    32  28  86 S5        29.97F WCI  27
WEST BEND      CLOUDY    32  30  93 S9        29.94F WCI  24
$$

INZ001>003-010>013-019-020-070800-
NORTHWEST INDIANA

CITY           SKY/WX    TMP DP  RH WIND       PRES   REMARKS
GARY*          CLOUDY    36  29  76 S3        30.06S
MICHIGAN CITY* NOT AVBL
RENSSELAER*    NOT AVBL
VALPARAISO     CLEAR     32  27  81 S7        30.06F WCI  26
$$

LMZ740>746-070800-
SOUTHERN LAKE MICHIGAN

STATION/POSITION TIME  SKY/WX   TEMP WIND        PRES    VSBY
                                AIR  DIR/SP/G
                 (UTC)          (F)  (DEG/KT/KT) (MB)    (MI)
HARRISON CRIB    0600            38  190/ 12/ 14   N/A
BURNHAM HARBOR   0700            37  220/  5/  7   N/A
CALUMET HARBOR   0600            35  190/  5/  7 1016.9F
BURNS HARBOR     0600            35  190/ 10/ 13 1018.6F
MICHIGAN CITY    0600            37  160/ 16/ 18   N/A
$$

ABBREVIATIONS USED IN REMARKS
   TC - TEMPERATURE IN CELSIUS
  WCI - WIND CHILL INDEX
   HX - HEAT INDEX
  VSB - VISIBILITY
$$




USA.gov is the U.S. government's official web portal to all federal, state and local government web resources and services.